Погода в Навашино

Россия / Нижегородская область     55°32′37″N   42°11′19″E
темп.,
°C
ветер,
м/с
пор.,
м/с
влажн.,
%
обл.,
%
осадки,
мм/ч
давл.,
гПа
погр.,
м
16 апреля, пт
пт1600:00+11св4977100 0.0 1018193
03:00+10всв51295100 0.0 1019386
06:00+9всв51191100 0.0 1020453
09:00+11всв6976100 0.0 1021641
12:00+14в6867100 0.1 1021907
15:00+15в5760100 0.1 10211061
18:00+14всв5106894 0.0 1021854
21:00+11всв6147886 0.0 1022568
17 апреля, сб
сб1700:00+9всв5138299 0.0 1023520
03:00+7всв41181100 0.0 1024450
06:00+6всв5128084 0.0 1024450
09:00+10в696258 0.0 1024627
12:00+15в695144 0.0 10231047
15:00+16в68485 0.0 10231359
18:00+13всв7115472 0.0 1022992
21:00+9всв514495 0.0 1023617
18 апреля, вс
вс1800:00+7всв4125629 0.0 1023443
03:00+7всв51362100 0.0 1023548
06:00+6всв41265100 0.0 1023589
09:00+7в41162100 0.0 1023759
12:00+8в4968100 1.4 10231011
15:00+7в4981100 3.7 1024958
18:00+7в3983100 1.1 10241016
21:00+7в41084100 1.4 10241022
19 апреля, пн
пн1900:00+7в51185100 0.1 1024703
03:00+6всв51186100 0.2 1024591
06:00+6в41286100 0.0 1025606
09:00+7в51078100 0.0 1026781
12:00+9в6969100 0.1 10261157
15:00+9в5961100 0.1 10261468
18:00+9в51054100 0.0 10261351
21:00+6в4116298 0.0 1026621
20 апреля, вт
вт2000:00+5в5137099 0.0 1025650
03:00+5в51177100 0.0 1025808
06:00+4в51186100 0.1 1024737
09:00+4в61386100 0.1 1023788
12:00+5в71482100 0.0 1021813
15:00+6вюв81576100 0.0 1019853
18:00+5вюв81782100 0.9 1017829
21:00+5вюв92088100 5.1 1015871